When you browse on this site, cookies collect data to enhance your experience and personalize the content and advertising you see.
Visit our Privacy Policy to learn more. By continuing to use the site, you agree to this use of cookies and data.
  • In Deutschland
  • Länderverzeichnis
  • Für 7 Tage
  • Wassertemperatur
  • Satellitenkarten
  • Wetterkarte
  • Widgets
  • user-avatar
    Anmelden

    Stündliche Wetter Valuevka

    Heute, 19 November, Montag

    Zeit Temperatur Niederschläge Wind Luftdruck Luftfeuchtigkeit
    00:00 0°C° 0 mm 1 m/S 758 mmHg 68%
    01:00 0°C° 0 mm 1 m/S 758 mmHg 67%
    02:00 0°C° 0 mm 1 m/S 758 mmHg 66%
    03:00 -1°C° 0 mm 1 m/S 758 mmHg 66%
    04:00 -1°C° 0 mm 1 m/S 758 mmHg 65%
    05:00 -1°C° 0 mm 1 m/S 758 mmHg 64%
    06:00 -1°C° 0 mm 1 m/S 758 mmHg 63%
    07:00 -2°C° 0 mm 2 m/S 758 mmHg 61%
    08:00 -1°C° 0 mm 2 m/S 759 mmHg 60%
    09:00 -1°C° 0 mm 2 m/S 759 mmHg 58%
    10:00 +1°C° 0 mm 3 m/S 759 mmHg 56%
    11:00 +2°C° 0 mm 3 m/S 759 mmHg 54%
    12:00 +3°C° 0 mm 3 m/S 759 mmHg 52%
    13:00 +3°C° 0 mm 3 m/S 759 mmHg 54%
    14:00 +3°C° 0 mm 3 m/S 758 mmHg 57%
    15:00 +3°C° 0 mm 3 m/S 758 mmHg 59%
    16:00 +2°C° 0 mm 3 m/S 758 mmHg 64%
    17:00 +1°C° 0 mm 3 m/S 758 mmHg 68%
    18:00 0°C° 0 mm 3 m/S 758 mmHg 73%
    19:00 0°C° 0 mm 3 m/S 758 mmHg 75%
    20:00 -2°C° 0 mm 4 m/S 758 mmHg 78%
    21:00 -2°C° 0 mm 4 m/S 757 mmHg 81%
    22:00 -1°C° 0 mm 4 m/S 757 mmHg 82%
    23:00 -1°C° 0 mm 4 m/S 757 mmHg 83%

    Morgen, 20 November, Dienstag

    Zeit Temperatur Niederschläge Wind Luftdruck Luftfeuchtigkeit
    00:00 -1°C° 0 mm 4 m/S 757 mmHg 84%
    01:00 -1°C° 0 mm 4 m/S 756 mmHg 85%
    02:00 -1°C° 0 mm 4 m/S 756 mmHg 85%
    03:00 +1°C° 0 mm 3 m/S 756 mmHg 86%
    04:00 +1°C° 0.1 mm 3 m/S 756 mmHg 87%
    05:00 +1°C° 0.1 mm 3 m/S 756 mmHg 88%
    06:00 +1°C° 0.1 mm 3 m/S 755 mmHg 90%
    07:00 0°C° 0.2 mm 4 m/S 755 mmHg 89%
    08:00 0°C° 0.2 mm 4 m/S 755 mmHg 89%
    09:00 0°C° 0.2 mm 5 m/S 755 mmHg 88%
    10:00 +1°C° 0.1 mm 5 m/S 755 mmHg 87%
    11:00 +1°C° 0.1 mm 5 m/S 754 mmHg 86%
    12:00 +2°C° 0.1 mm 5 m/S 754 mmHg 85%
    13:00 +2°C° 0.6 mm 5 m/S 753 mmHg 85%
    14:00 +3°C° 0.6 mm 4 m/S 753 mmHg 86%
    15:00 +3°C° 0.6 mm 4 m/S 753 mmHg 87%
    16:00 +2°C° 0.2 mm 5 m/S 752 mmHg 88%
    17:00 +1°C° 0.2 mm 5 m/S 752 mmHg 89%
    18:00 +1°C° 0.2 mm 5 m/S 752 mmHg 90%
    19:00 +2°C° 0.6 mm 5 m/S 752 mmHg 91%
    20:00 +3°C° 0.6 mm 4 m/S 752 mmHg 92%
    21:00 +3°C° 0.6 mm 4 m/S 752 mmHg 93%
    22:00 +3°C° 1.2 mm 4 m/S 752 mmHg 93%
    23:00 +1°C° 1.2 mm 5 m/S 752 mmHg 93%

    übermorgen, 21 November, Mittwoch

    Zeit Temperatur Niederschläge Wind Luftdruck Luftfeuchtigkeit
    00:00 +1°C° 1.2 mm 5 m/S 752 mmHg 93%
    01:00 +1°C° 0.1 mm 5 m/S 752 mmHg 92%
    02:00 +1°C° 0.1 mm 5 m/S 752 mmHg 91%
    03:00 +1°C° 0.1 mm 5 m/S 752 mmHg 90%
    04:00 +1°C° 0 mm 5 m/S 752 mmHg 89%
    05:00 +1°C° 0 mm 5 m/S 752 mmHg 89%
    06:00 0°C° 0 mm 5 m/S 752 mmHg 88%
    07:00 0°C° 0 mm 4 m/S 753 mmHg 85%
    08:00 0°C° 0 mm 4 m/S 753 mmHg 82%
    09:00 0°C° 0 mm 4 m/S 754 mmHg 79%
    10:00 +1°C° 0 mm 4 m/S 753 mmHg 75%
    11:00 +1°C° 0 mm 4 m/S 753 mmHg 72%
    12:00 +1°C° 0 mm 4 m/S 753 mmHg 69%
    13:00 +1°C° 0 mm 4 m/S 753 mmHg 67%
    14:00 +3°C° 0 mm 4 m/S 753 mmHg 65%
    15:00 +3°C° 0 mm 3 m/S 752 mmHg 63%
    16:00 +2°C° 0 mm 3 m/S 753 mmHg 64%
    17:00 +1°C° 0 mm 4 m/S 753 mmHg 64%
    18:00 +1°C° 0 mm 4 m/S 753 mmHg 64%
    19:00 +1°C° 0 mm 3 m/S 753 mmHg 64%
    20:00 +1°C° 0 mm 3 m/S 753 mmHg 65%
    21:00 +1°C° 0 mm 3 m/S 753 mmHg 65%
    22:00 0°C° 0 mm 3 m/S 753 mmHg 68%
    23:00 0°C° 0 mm 3 m/S 753 mmHg 70%

    22 November, Donnerstag

    Zeit Temperatur Niederschläge Wind Luftdruck Luftfeuchtigkeit
    00:00 -1°C° 0 mm 3 m/S 753 mmHg 72%
    01:00 -1°C° 0 mm 3 m/S 753 mmHg 74%
    02:00 -1°C° 0 mm 3 m/S 753 mmHg 75%
    03:00 -2°C° 0 mm 3 m/S 753 mmHg 76%
    04:00 -2°C° 0 mm 2 m/S 753 mmHg 77%
    05:00 -2°C° 0 mm 2 m/S 753 mmHg 79%
    06:00 -3°C° 0 mm 2 m/S 753 mmHg 80%
    07:00 -2°C° 0 mm 2 m/S 753 mmHg 78%
    08:00 -2°C° 0 mm 2 m/S 753 mmHg 76%
    09:00 -2°C° 0 mm 3 m/S 754 mmHg 74%
    10:00 -1°C° 0 mm 3 m/S 753 mmHg 70%
    11:00 0°C° 0 mm 3 m/S 753 mmHg 65%
    12:00 +1°C° 0 mm 3 m/S 753 mmHg 61%
    13:00 +1°C° 0 mm 3 m/S 753 mmHg 61%
    14:00 +1°C° 0 mm 3 m/S 752 mmHg 62%
    15:00 +1°C° 0 mm 3 m/S 752 mmHg 63%
    16:00 0°C° 0 mm 3 m/S 752 mmHg 68%
    17:00 -1°C° 0 mm 3 m/S 752 mmHg 74%
    18:00 -2°C° 0 mm 3 m/S 752 mmHg 80%
    19:00 -2°C° 0 mm 3 m/S 753 mmHg 80%
    20:00 -2°C° 0 mm 3 m/S 753 mmHg 81%
    21:00 -3°C° 0 mm 2 m/S 753 mmHg 81%
    22:00 -4°C° 0 mm 3 m/S 753 mmHg 81%
    23:00 -4°C° 0 mm 3 m/S 753 mmHg 80%

    23 November, Freitag

    Zeit Temperatur Niederschläge Wind Luftdruck Luftfeuchtigkeit
    00:00 -4°C° 0 mm 4 m/S 753 mmHg 79%
    01:00 -4°C° 0 mm 4 m/S 753 mmHg 78%
    02:00 -4°C° 0 mm 4 m/S 753 mmHg 77%
    03:00 -5°C° 0 mm 5 m/S 753 mmHg 75%
    04:00 -6°C° 0 mm 5 m/S 753 mmHg 75%
    05:00 -6°C° 0 mm 5 m/S 753 mmHg 76%
    06:00 -6°C° 0 mm 5 m/S 754 mmHg 76%
    07:00 -5°C° 0 mm 5 m/S 754 mmHg 75%
    08:00 -5°C° 0 mm 5 m/S 755 mmHg 75%
    09:00 -5°C° 0 mm 5 m/S 756 mmHg 74%
    10:00 -4°C° 0 mm 5 m/S 756 mmHg 71%
    11:00 -2°C° 0 mm 5 m/S 757 mmHg 68%
    12:00 -1°C° 0 mm 5 m/S 757 mmHg 65%
    13:00 -1°C° 0 mm 5 m/S 757 mmHg 65%
    14:00 -1°C° 0 mm 4 m/S 758 mmHg 64%
    15:00 -1°C° 0 mm 4 m/S 758 mmHg 63%
    16:00 -2°C° 0 mm 4 m/S 759 mmHg 66%
    17:00 -2°C° 0 mm 3 m/S 760 mmHg 69%
    18:00 -3°C° 0 mm 2 m/S 760 mmHg 72%
    19:00 -3°C° 0 mm 2 m/S 761 mmHg 68%
    20:00 -3°C° 0 mm 2 m/S 762 mmHg 65%
    21:00 -4°C° 0 mm 2 m/S 762 mmHg 62%
    22:00 -2°C° 0 mm 1 m/S 762 mmHg 60%
    23:00 -2°C° 0 mm 1 m/S 763 mmHg 58%

    24 November, Samstag

    Zeit Temperatur Niederschläge Wind Luftdruck Luftfeuchtigkeit
    00:00 -2°C° 0 mm 1 m/S 763 mmHg 55%
    01:00 -2°C° 0 mm 1 m/S 763 mmHg 54%
    02:00 -2°C° 0 mm 1 m/S 763 mmHg 53%
    03:00 -2°C° 0 mm 1 m/S 763 mmHg 51%
    04:00 -4°C° 0 mm 2 m/S 763 mmHg 51%
    05:00 -4°C° 0 mm 2 m/S 763 mmHg 51%
    06:00 -4°C° 0 mm 2 m/S 763 mmHg 51%
    07:00 -4°C° 0 mm 2 m/S 763 mmHg 49%
    08:00 -4°C° 0 mm 3 m/S 763 mmHg 47%
    09:00 -2°C° 0 mm 3 m/S 763 mmHg 45%
    10:00 -1°C° 0 mm 3 m/S 763 mmHg 43%
    11:00 0°C° 0 mm 3 m/S 762 mmHg 41%
    12:00 +1°C° 0 mm 3 m/S 762 mmHg 39%
    13:00 +1°C° 0 mm 3 m/S 762 mmHg 41%
    14:00 +1°C° 0 mm 3 m/S 761 mmHg 43%
    15:00 +2°C° 0 mm 2 m/S 761 mmHg 44%
    16:00 +1°C° 0 mm 2 m/S 761 mmHg 48%
    17:00 -1°C° 0 mm 2 m/S 761 mmHg 52%
    18:00 -2°C° 0 mm 2 m/S 760 mmHg 56%
    19:00 -3°C° 0 mm 2 m/S 760 mmHg 58%
    20:00 -3°C° 0 mm 2 m/S 760 mmHg 59%
    21:00 -3°C° 0 mm 2 m/S 759 mmHg 61%
    22:00 -3°C° 0 mm 2 m/S 759 mmHg 63%
    23:00 -3°C° 0 mm 2 m/S 759 mmHg 65%
    Mehr zeigen